Regional Weather Roundup
Issued by NWS

Home | Current Version | Previous Version | Graphics & Text | Print | Product List | Glossary On
Versions: 1 2 3 4 5 6 7 8 9 10 11 12 13 14 15 16 17 18 19 20 21 22 23 24 25 26 27 28 29 30 31 32 33 34 35 36 37 38 39 40 41 42 43 44 45 46 47 48 49 50
000
ASUS43 KMPX 261710
RWRMN
WEATHER ROUNDUP FOR MINNESOTA
NATIONAL WEATHER SERVICE TWIN CITIES/CHANHASSEN MN
1100 AM CST MON JAN 26 2015


NOTE: "FAIR" INDICATES FEW OR NO CLOUDS BELOW 12,000 FEET WITH NO
SIGNIFICANT WEATHER AND/OR OBSTRUCTIONS TO VISIBILITY. N/A MEANS
CURRENT SKY AND/OR WEATHER CONDITIONS ARE NOT AVAILABLE.

MNZ060>063-068>070-261800-
   Twin Cities Metro

CITY           SKY/WX    TMP DP  RH WIND       PRES   REMARKS
TWIN CITIES    MOSUNNY   37  31  78 W10       29.72R
ST PAUL        CLOUDY    37  31  78 W9        29.73R
CRYSTAL        MOSUNNY   39  32  76 W10       29.71R
BLAINE         PTSUNNY  N/A N/A N/A W122      29.70R
LAKEVILLE      PTSUNNY   36  30  80 W14       29.71R
EDEN PRAIRIE   MOSUNNY   39  31  72 W13       29.72R
SOUTH ST PAUL  CLOUDY    37  32  81 NW8       29.72R
LAKE ELMO      CLOUDY    36  32  87 W12       29.71R
$$
MNZ001>005-007-008-013>017-022>024-027-028-261800-
   Northwest Minnesota

CITY           SKY/WX    TMP DP  RH WIND       PRES   REMARKS
BEMIDJI        CLOUDY    35  31  88 NW18      29.68R WCI  24
HALLOCK        CLOUDY    34  30  86 N26       29.77R WCI  21
ROSEAU         CLOUDY    34  30  86 NW16G24   29.70R WCI  23
WARROAD        CLOUDY    34  30  86 NW14G26   29.69R WCI  24
THIEF RVR FALL CLOUDY    36  30  80 NW23G35   29.74R
CROOKSTON      CLOUDY    37  32  81 N23G30    29.77R
FOSSTON        CLOUDY    36  30  80 NW15G26   29.74R
DETROIT LAKES  PTSUNNY   36  32  87 NW15G24   29.75R
MOORHEAD       SUNNY     41  36  81 NW16G23   29.79R
PARK RAPIDS    PTSUNNY   39  31  72 NW17      29.68R
MAHNOMEN       CLOUDY    34  31  88 NW10      29.75R WCI  26
$$
MNZ006-009>011-018-025>026-261800-
   North Central Minnesota

CITY           SKY/WX    TMP DP  RH WIND       PRES   REMARKS
BAUDETTE       CLOUDY    33  29  85 NW18      29.65R WCI  22
FLAG ISLAND    CLOUDY    28  27  93 N20       29.69R WCI  15
INTL FALLS     CLOUDY    30  27  88 NW10      29.63R WCI  21
WASKISH        CLOUDY    36  32  87 NW9G16    29.66R
BIG FORK       MIX PCPN  34  30  86 NW5       29.63R WCI  30
LONGVILLE      CLOUDY    36  32  87 W9G16     29.66R
GRAND RAPIDS   CLOUDY    34  30  86 NW14      29.62R WCI  24
CRANE LAKE     LGT SNOW  25  21  86 CALM      29.64R VSB 3/4
ORR            MIX PCPN  27  23  86 CALM      29.59R
COOK           LGT SNOW  25  25 100 S3        29.62R
WALKER         CLOUDY    34  32  91 W8        29.67R WCI  28
$$
MNZ012-019>021-037-261800-
   Northeast Minnesota

CITY           SKY/WX    TMP DP  RH WIND       PRES   REMARKS
DULUTH         CLOUDY    24  20  84 SW7       29.64R FOG     WCI  16
ELY            PTSUNNY   21  19  93 S6        29.62R WCI  14
HIBBING        LGT SNOW  25  21  85 CALM      29.62R VSB 1
EVELETH        FLURRIES  25  21  86 S5        29.64R WCI  19
DULUTH HARBOR  LGT SNOW  25  21  86 CALM      29.70R
TWO HARBORS    LGT SNOW  27  21  80 CALM      29.65R
SILVER BAY     FLURRIES  25  21  86 CALM      29.65S
GRAND MARAIS     N/A     27  22  81 S13       29.72R WCI  16
G MARAIS ARPRT   N/A     19  16  86 S8        29.65S FOG     WCI   9
$$
MNZ029>031-032-039>041-046>048-054>057-064-261800-
   West Central Minnesota

CITY           SKY/WX    TMP DP  RH WIND       PRES   REMARKS
FERGUS FALLS   SUNNY     36  32  87 NW16      29.80R
WHEATON        MOSUNNY   39  32  75 W21G26    29.82R
MORRIS         SUNNY     39  34  81 NW21      29.77R
ALEXANDRIA     CLOUDY    36  30  79 NW13      29.75R
ELBOW LAKE     FAIR      36  32  85 NW15      29.77R
WADENA         CLOUDY    36  30  80 NW13      29.71R
GLENWOOD       SUNNY     37  32  81 NW20G25   29.75R
APPLETON       SUNNY     43  34  70 NW17      29.80R
BENSON         CLOUDY    43  34  70 N13       29.78R
ORTONVILLE     SUNNY     43  34  70 NW14G23   29.81R
MADISON        SUNNY     45  36  70 NW15      29.82R
WILLMAR        FAIR      39  34  81 NW15      29.78R
$$
MNZ033>034-036-042>043-049>051-058-059-261800-
   Central Minnesota

CITY           SKY/WX    TMP DP  RH WIND       PRES   REMARKS
ST CLOUD       SUNNY     39  31  72 NW12      29.70R
SAUK CENTRE    CLOUDY    36  32  85 NW14      29.74R
PAYNESVILLE    MOSUNNY   35  32  87 W13       29.75R WCI  27
AITKIN         CLOUDY    37  30  75 W5        29.64R
PINE RIVER     LGT RAIN  36  30  80 W6        29.71R
BRAINERD       CLOUDY    36  30  79 NW10      29.68R
STAPLES        PTSUNNY   36  30  80 W10       29.70R
LONG PRAIRIE   CLOUDY    34  32  93 W9        29.73R WCI  26
LITTLE FALLS   MOSUNNY   41  32  70 W9        29.70R
LITCHFIELD     SUNNY     39  36  87 NW10      29.75R
BUFFALO        SUNNY     38  32  78 W9        29.73R
MAPLE LAKE     SUNNY     39  33  80 W12       29.73R
$$
MNZ037-044-045-052-053-261800-
   East Central Minnesota

CITY           SKY/WX    TMP DP  RH WIND       PRES   REMARKS
PRINCETON      CLOUDY    39  32  75 W10       29.70R
MORA           CLOUDY    32  28  86 SW3       29.69R
CAMBRIDGE      CLOUDY    37  28  70 W7        29.68R
RUSH CITY      CLOUDY    32  29  89 W3        29.69R
MOOSE LAKE     CLOUDY    28  25  86 SW3       29.65R FOG
HINCKLEY       CLOUDY    30  28  93 SW3       29.68R FOG
CLOQUET        LGT SNOW  25  21  86 CALM      29.65R
MCGREGOR       CLOUDY    34  32  93 W6        29.65R WCI  29
$$
MNZ071>073-080-081-089-090-097-098-261800-
   Southwest Minnesota

CITY           SKY/WX    TMP DP  RH WIND       PRES   REMARKS
MONTEVIDEO     SUNNY     43  43 100 N12       29.80R
GRANITE FALLS  SUNNY     40  35  82 W14       29.82R
CANBY          SUNNY     44  35  71 NW16      29.84R
MARSHALL       SUNNY     41  32  70 NW15      29.83R
REDWOOD FALLS  SUNNY     42  34  73 NW14      29.78R
OLIVIA         SUNNY     37  34  87 NW12G17   29.77R
PIPESTONE      SUNNY     39  34  81 NW14G20   29.84R
WINDOM         SUNNY     39  34  81 NW12      29.80R
WORTHINGTON    SUNNY     39  34  81 NW14      29.83R
JACKSON        SUNNY     39  32  75 NW13      29.80R
TRACY          SUNNY     42  34  74 W10       29.81R
SLAYTON        SUNNY     39  33  77 W14       29.82R
$$
MNZ065>067-074>077-082>085-091>093-261800-
   South Central Minnesota

CITY           SKY/WX    TMP DP  RH WIND       PRES   REMARKS
MANKATO        SUNNY     39  32  75 NW22      29.76R
NEW ULM        SUNNY     41  34  75 NW22      29.77R
ST JAMES       SUNNY     43  36  75 NW16G25   29.79R
FAIRMONT       SUNNY     43  32  65 NW17G23   29.78R
GLENCOE        SUNNY     38  34  84 W13       29.75R
FARIBAULT      MOSUNNY   39  32  75 W9        29.74R
OWATONNA       PTSUNNY   37  32  81 W10       29.73S
WASECA         SUNNY     37  34  87 NW14      29.75R
ALBERT LEA     SUNNY     39  36  87 NW13      29.73R
$$
MNZ078>079-086>088-094>096-261800-
   Southeast Minnesota

CITY           SKY/WX    TMP DP  RH WIND       PRES   REMARKS
ROCHESTER      CLOUDY    33  30  88 W14       29.72R WCI  23
RED WING       CLOUDY    36  30  80 CALM      29.71R
STANTON        PTSUNNY   38  32  78 W10       29.71R
DODGE CENTER   CLOUDY    36  34  93 W13       29.71R
WINONA         CLOUDY    30  27  86 CALM      29.77R
AUSTIN         PTSUNNY   36  32  87 W8        29.74R
PRESTON        CLOUDY    28  26  93 SW8       29.73S FOG     WCI  20
$$
ABBREVIATIONS USED IN REMARKS
   TC - TEMPERATURES IN CELSIUS
  WCI - WIND CHILL INDEX
   HX - HEAT INDEX
  VSB - VISIBILITY
$$



USA.gov is the U.S. government's official web portal to all federal, state and local government web resources and services.